COSMOS 2464 (736) (37139 NORAD) Tracking and Keplerian Element Data

This shows tracking and keplerian element data for the satellite.

Feedback or suggestion? Click here.




ElementValue
Catalog37139
NameCOSMOS 2464 (736)
Epoch Orbit6135
Epoch Day202.45936973
Epoch Year2018
RAAN290.1258
Inclination64.4795
Eccentricity0.0022411
Argument of Perigee12.8593
Mean Anonmoly18.8739
Mean Motion2.13102737
Decay Rate-5.4E-07
L11 37139U 10041C 18202.45936973 -.00000054 00000-0 00000+0 0 9997
L22 37139 64.4795 290.1258 0022411 12.8593 18.8739 2.13102737 61352

Live tracking and technical data element details for COSMOS 2464 (736) (NORAD 37139). COSMOS 2464 (736) can be tracked NOW for your location showing map with azimuth and elevation plus other details from your city location.

Track the satellite on the map from your city or location and see movement details for azimuth, elevation, latitude, longitude, range, height, and movement on the map or in text.







IsCatalogInMostPopularTable: catalog: 37139, numindb: 37
Update: records affected: 1



GetName: 37139 COSMOS 2464 (736)

Hit Count: updated at: Mon, 23 Jul 2018 07:43:10 GMT